Tracking 19245 objects as of 21-Aug-2018
HD Live streaming from Space Station
objects crossing your sky now

NOAA 16 DEB

Track NOAA 16 DEB now!
10-day predictions


NORAD ID: 41658
Int'l Code: 2000-055NX
Perigee: 815.8 km
Apogee: 864.3 km
Inclination: 98.9 °
Period: 101.6 minutes
Semi major axis: 7211 km
RCS: Unknown
Launch date: September 21, 2000
Source: United States (US)
Launch site: AIR FORCE WESTERN TEST RANGE (AFWTR)

Note: This is SATELLITE DEBRIS
aabbcc
Your satellite tracking list
Your tracking list is empty




NASA's NSSDC Master Catalog

Two Line Element Set (TLE):
1 41658U 00055NX  18232.00604607  .00000737  00000-0  38127-3 0  9994
2 41658  98.8950 314.1002 0033653  94.1119 266.3903 14.17759250120925
Source of the keplerian elements: AFSPC